Wind_Speed
34 36 39 41 44 46 49 52 54 57 60 62 64 66 67 69 70 72 74 76 78 79 80 81 82 82 83 84 85 86 87 88 89 90 91 91 91 91 90 89 89 87 86 85 85 86 86 86 86 86 86 86 86 87 88 89 90 91 90 90 89 90 91 90 88 86 85 84 83 82 81 81 80 79 79 78 77 75 74 74 72 72 71 71 70 69 68 67
31 33 36 39 42 44 47 49 52 54 57 59 62 64 66 67 69 70 72 73 75 77 79 80 81 82 83 83 84 85 86 86 87 88 89 90 91 91 91 91 90 90 89 87 86 86 86 87 87 86 86 86 86 86 86 87 88 88 88 88 88 89 91 91 89 87 86 85 84 83 83 82 81 80 79 78 77 76 75 74 73 72 72 71 71 70 69 68
28 30 32 35 38 41 44 47 50 52 54 57 59 61 63 65 67 69 70 72 73 75 76 77 79 81 82 83 84 85 85 86 86 87 88 89 90 90 91 91 91 91 90 90 89 88 87 87 88 87 87 86 86 86 85 86 86 86 87 87 87 88 90 90 89 88 87 86 85 85 84 83 82 81 80 79 78 77 76 75 74 73 73 72 71 70 70 68
25 27 29 31 34 37 41 44 46 49 52 55 57 59 61 62 65 67 68 70 72 73 74 75 76 78 79 81 82 84 85 85 86 86 86 87 88 89 90 91 91 91 91 91 91 90 89 88 88 88 88 87 87 86 86 85 85 84 85 84 84 86 88 89 88 87 87 87 86 86 85 84 83 82 81 80 80 79 78 76 76 75 74 73 72 71 71 70
25 26 27 29 31 34 36 39 42 44 47 50 53 56 58 60 62 64 66 68 70 71 73 74 75 76 77 78 80 81 83 84 84 85 86 86 87 88 89 90 91 91 92 92 92 92 91 90 89 89 88 88 88 87 86 85 84 84 83 82 82 84 85 86 86 86 86 86 86 86 86 85 84 83 82 81 81 80 79 78 77 77 76 75 74 73 73 71
26 26 27 29 30 32 33 35 37 39 41 44 47 50 52 55 57 60 62 64 66 68 70 72 74 75 76 77 78 79 80 81 82 83 84 86 86 87 88 89 90 91 92 92 92 92 92 92 91 90 89 89 89 88 87 86 85 84 83 81 81 81 82 84 84 84 84 85 85 85 86 85 84 83 82 82 82 81 80 79 78 78 77 76 75 75 74 72
26 26 27 28 29 31 32 33 34 35 37 39 41 42 44 47 50 53 56 59 61 64 66 68 70 72 74 75 76 77 78 79 79 80 82 84 85 87 87 88 89 90 91 91 92 93 93 93 92 92 91 90 89 89 88 87 86 84 83 82 81 81 81 82 82 82 82 83 83 83 84 84 83 83 83 83 81 81 80 80 79 79 79 77 76 76 75 73
27 26 26 26 27 28 29 30 31 32 34 35 36 37 39 41 42 45 47 50 54 57 60 63 66 68 70 72 73 74 76 77 77 78 80 81 83 85 87 88 89 89 90 90 91 92 93 93 93 93 93 92 91 90 88 87 86 85 83 82 81 81 81 81 81 81 81 81 81 81 81 82 81 81 82 80 79 80 81 80 80 80 79 78 77 76 76 75
27 26 25 24 24 24 25 26 27 27 28 29 29 30 33 37 38 40 42 44 46 49 52 55 59 62 65 67 69 71 73 74 75 77 78 79 81 82 84 86 88 88 89 90 90 91 92 93 93 93 93 93 92 91 89 88 87 85 84 82 81 81 81 81 81 81 80 80 80 80 79 80 79 79 79 78 78 79 80 80 79 79 79 78 77 77 77 77
30 28 26 24 23 22 21 21 21 21 21 22 23 25 28 32 34 36 38 39 41 42 45 48 51 54 58 61 64 67 69 70 72 74 76 77 78 80 82 83 85 86 88 89 90 90 91 92 93 94 94 93 93 92 91 89 88 86 85 83 83 82 82 81 81 81 80 79 79 79 78 78 78 78 77 76 76 77 78 79 78 77 77 77 76 76 76 77
34 32 30 27 25 24 22 21 20 19 18 19 21 23 26 28 29 30 32 33 34 35 37 40 43 46 50 53 56 60 63 65 67 70 72 74 76 78 80 81 82 83 85 87 89 90 91 92 93 93 94 93 93 92 91 90 89 87 86 84 84 83 83 82 82 81 80 79 79 78 78 77 77 76 75 75 75 75 76 77 76 75 76 76 75 75 76 76
37 34 32 30 29 28 26 25 23 21 19 19 21 22 22 24 24 24 25 26 27 28 29 31 34 37 41 44 48 52 55 58 61 64 66 69 71 74 77 79 80 81 82 84 86 88 90 91 92 93 93 93 93 92 92 91 90 88 87 86 85 85 84 83 82 81 80 79 78 78 77 76 75 73 73 73 73 73 74 75 74 73 74 75 74 74 75 76
38 36 34 33 32 31 30 29 26 23 22 21 21 19 17 16 15 15 16 18 21 22 24 25 26 28 31 35 39 43 47 51 54 57 60 62 66 69 72 75 77 79 80 82 84 85 87 89 91 92 92 92 93 93 92 92 91 90 88 87 86 85 85 84 82 81 80 79 78 78 76 75 73 71 71 71 71 71 72 72 72 72 73 73 73 73 74 75
40 38 36 35 34 33 33 30 27 24 22 21 20 17 15 15 15 14 14 14 14 16 18 20 22 24 26 27 30 34 38 42 46 50 53 56 59 62 65 69 72 75 77 79 81 83 84 86 88 90 91 92 93 93 93 92 91 90 90 89 87 86 85 84 82 81 80 79 79 77 76 74 73 72 71 71 71 71 70 71 71 71 72 71 71 72 73 74
43 40 39 38 37 36 34 30 26 22 20 19 18 17 17 16 15 15 16 16 13 12 13 15 18 21 23 25 26 27 30 33 37 42 46 49 53 56 59 62 65 69 72 75 78 80 81 83 85 87 89 91 92 93 93 92 91 90 90 89 87 86 85 83 82 82 81 80 79 77 76 74 73 72 72 71 71 71 71 71 71 71 71 70 70 71 72 72
46 44 42 41 40 38 35 30 25 21 19 19 18 17 18 17 15 13 12 13 13 12 12 15 17 18 20 22 24 26 25 26 29 33 38 42 46 50 53 56 59 63 66 70 73 76 78 80 82 84 86 88 90 91 91 92 91 90 89 87 86 85 84 83 82 82 82 81 80 78 77 74 73 72 72 72 72 72 71 71 71 71 71 70 70 71 71 71
50 47 45 44 43 40 35 30 26 23 21 21 21 20 21 21 18 15 12 11 11 11 12 15 17 18 18 18 20 22 24 24 24 27 31 35 38 42 46 50 53 57 60 64 68 71 74 77 80 82 83 85 87 88 89 90 89 88 87 85 85 85 84 83 82 82 82 81 80 79 78 76 74 73 72 72 73 72 72 71 71 71 71 70 71 72 72 72
54 50 48 46 45 42 37 32 30 27 24 23 23 23 24 25 24 20 17 16 14 13 12 12 12 14 15 15 16 17 20 22 23 24 26 28 32 35 39 43 47 51 54 58 62 66 70 73 76 79 81 82 83 84 85 85 85 86 85 84 84 83 82 82 82 82 82 81 81 80 79 77 75 74 73 73 73 73 72 72 72 71 71 71 72 74 74 74
57 54 51 49 47 45 41 36 34 33 30 28 25 24 25 26 26 23 19 17 16 16 16 13 11 9 9 10 12 14 16 17 19 21 23 24 26 29 33 36 40 44 48 52 56 60 64 68 72 75 77 79 79 80 80 80 82 83 83 84 84 83 82 81 81 81 81 81 81 80 79 78 77 75 74 74 74 73 73 73 73 73 72 72 73 74 75 76
61 58 55 52 50 48 45 41 38 38 37 35 33 31 30 29 30 28 23 19 17 17 17 15 13 11 8 6 7 10 13 15 16 17 19 21 23 24 27 30 34 39 43 47 51 54 58 62 66 69 71 74 75 76 76 77 79 79 80 82 83 83 83 83 82 81 81 81 80 80 79 78 78 77 76 75 75 74 74 74 74 74 74 74 74 75 76 77
63 62 59 56 53 50 47 44 41 41 41 40 39 37 35 34 33 32 28 24 22 22 20 18 14 13 11 8 6 7 9 11 13 14 14 17 21 23 24 27 30 34 38 42 46 49 52 56 59 62 66 69 72 73 74 75 75 75 77 79 79 80 81 82 82 82 83 82 81 80 79 79 78 77 77 76 76 75 75 75 75 76 75 76 76 77 78 78
65 65 63 61 58 54 51 47 43 42 42 43 42 41 40 38 37 35 31 27 26 25 25 22 18 14 12 11 9 8 6 6 7 10 11 13 17 20 23 25 27 29 33 37 41 44 48 51 54 57 61 64 67 70 71 72 72 73 74 76 76 77 78 80 80 82 83 82 82 81 81 80 79 78 77 77 76 76 76 76 77 77 77 77 78 78 78 78
67 67 67 65 63 60 56 51 48 46 45 45 45 45 45 42 40 39 35 32 29 29 29 25 21 17 14 13 12 10 8 6 3 4 8 11 14 17 21 24 24 26 29 33 36 39 43 46 50 53 55 57 59 63 66 68 70 71 72 73 73 73 74 76 77 79 80 81 81 81 82 82 80 79 78 77 77 77 77 77 77 78 77 78 78 78 78 78
68 69 69 69 68 66 62 57 54 52 50 49 48 49 49 46 43 41 39 38 35 34 32 28 26 22 19 18 15 13 10 8 6 3 4 8 12 15 18 20 22 23 26 29 32 35 38 41 44 47 49 50 53 56 59 62 65 68 69 69 69 70 71 73 74 76 77 78 79 80 80 80 79 78 77 77 77 77 77 77 76 76 76 76 77 77 77 77
69 70 71 71 71 71 69 65 61 59 58 55 53 54 54 52 48 44 44 45 43 41 37 35 34 30 26 23 21 20 17 14 12 10 7 7 10 12 14 17 20 22 23 25 28 31 33 36 39 41 43 46 49 51 53 57 60 63 64 65 66 67 69 70 72 73 74 75 76 76 76 75 74 75 75 76 76 76 75 75 75 75 75 75 75 75 75 75
70 70 71 72 73 74 74 72 69 68 67 63 59 59 59 58 56 53 53 52 48 46 43 42 42 38 34 30 28 29 25 22 20 18 16 13 12 12 12 15 18 21 23 24 26 28 30 32 34 36 38 41 45 48 50 53 55 57 59 61 63 64 65 66 68 69 71 72 72 72 71 71 71 72 72 72 72 73 73 73 74 73 73 74 73 73 73 72
71 71 72 73 74 75 76 76 75 76 75 70 66 64 63 63 62 61 60 53 48 48 47 47 48 46 43 39 38 35 28 25 24 21 22 21 19 18 15 15 17 19 21 24 24 26 28 29 30 32 34 37 40 44 46 48 50 51 52 54 57 59 60 62 64 65 67 67 67 66 66 67 67 68 68 69 69 69 70 71 71 71 70 70 70 70 71 71
71 72 72 73 74 76 77 78 78 80 81 78 73 68 65 64 63 62 57 48 45 49 49 51 53 51 50 48 44 36 29 26 25 24 26 27 26 26 23 19 19 19 18 20 22 22 23 25 26 27 29 33 36 39 42 43 45 46 47 48 50 52 54 56 58 59 60 60 60 60 61 61 61 62 63 64 64 65 66 66 66 65 66 67 67 68 69 69
70 72 73 74 75 76 77 79 79 81 84 84 80 74 69 64 61 57 50 45 47 50 51 53 54 52 53 52 47 42 36 31 25 24 27 29 29 31 32 26 24 24 18 17 22 22 21 23 25 26 26 28 30 33 36 38 40 41 42 43 44 45 45 47 49 51 52 52 53 54 55 55 55 57 58 58 59 59 60 59 60 61 62 63 63 64 64 65
67 71 72 73 75 75 77 79 79 81 86 86 83 80 74 67 60 53 48 48 49 51 52 54 53 53 55 53 49 47 44 37 31 27 26 26 27 32 36 32 30 30 22 20 24 25 23 23 23 24 25 25 25 25 27 31 34 36 37 37 38 38 38 39 41 43 45 47 49 51 52 52 53 55 55 55 55 56 56 56 57 58 59 59 59 60 61 62
65 68 71 73 74 75 77 79 79 80 86 88 85 83 80 72 61 53 52 53 53 55 55 55 55 55 55 53 51 50 47 43 41 37 31 27 26 31 34 34 35 33 27 27 28 28 28 27 26 26 25 25 25 25 26 28 30 30 31 32 32 32 33 34 36 38 40 42 44 46 47 48 50 51 52 53 53 54 55 55 56 56 57 57 58 58 58 59
63 65 68 71 73 74 76 78 79 79 85 88 86 84 81 73 64 59 59 59 59 60 59 57 57 56 55 54 53 54 53 50 50 46 40 36 31 28 28 32 37 37 34 32 31 29 29 30 29 29 28 28 28 27 26 26 26 26 26 28 29 30 30 31 32 33 34 36 37 39 40 42 45 47 48 49 50 51 51 52 52 53 53 53 53 54 54 54
61 62 65 67 70 72 74 76 78 78 83 88 86 84 79 71 68 70 69 68 67 64 61 60 59 57 57 56 55 56 55 53 54 52 49 47 41 33 28 28 32 37 37 35 33 31 29 30 30 28 28 29 29 29 28 26 25 25 23 23 24 25 26 27 28 29 30 32 32 34 35 36 37 38 39 39 40 41 41 42 43 44 45 45 46 46 46 47
61 61 62 64 66 69 71 73 75 76 80 86 85 80 75 71 74 78 77 76 74 70 66 63 60 59 58 57 56 57 55 53 54 54 54 54 49 43 40 36 33 34 35 33 33 31 28 29 31 29 28 27 26 28 29 27 25 24 22 21 21 21 22 23 24 24 24 24 24 24 24 25 26 26 27 27 28 29 30 31 32 33 34 35 35 36 36 37
60 61 61 62 62 65 67 68 71 72 76 84 83 74 71 74 77 80 80 81 79 77 74 69 66 63 60 58 57 57 55 54 55 56 55 53 50 49 48 45 42 41 40 36 34 31 26 25 27 28 28 28 27 26 27 27 25 23 22 20 18 17 16 15 13 12 11 12 13 13 14 15 16 17 17 18 19 19 20 21 22 22 23 23 23 24 24 23
59 59 60 61 60 61 63 64 66 66 72 82 78 69 70 75 77 79 81 82 81 81 79 76 73 70 66 63 60 58 57 57 58 57 54 51 49 50 50 48 49 49 48 44 41 37 30 26 28 27 25 24 23 22 22 22 21 19 17 15 12 10 10 8 6 5 4 4 5 6 6 7 8 8 9 9 10 10 10 11 11 11 11 11 11 11 10 10
58 58 59 59 59 60 60 61 62 62 69 77 71 65 69 74 75 77 79 81 82 82 81 79 78 77 75 71 68 66 63 61 60 57 53 50 48 49 50 50 50 51 51 48 46 44 39 34 35 34 30 29 28 27 26 25 23 21 20 18 17 16 16 14 12 11 10 9 9 9 9 9 8 8 8 8 8 8 8 8 7 6 5 4 2 1 0 1
56 57 57 57 58 59 58 59 60 60 67 71 65 63 67 70 73 75 77 78 79 80 80 80 80 80 80 78 76 75 71 67 64 59 55 52 51 52 52 51 51 51 51 49 46 46 44 39 38 38 37 36 35 33 31 29 28 26 25 24 23 22 21 20 20 19 18 18 18 17 17 16 16 15 14 14 13 12 12 11 10 10 9 9 9 8 8 8
54 55 55 56 57 57 58 59 57 58 63 64 61 62 65 67 70 72 73 75 76 76 77 78 80 81 81 80 80 79 76 74 71 66 62 59 57 57 56 54 53 52 51 49 46 46 46 42 39 40 40 39 38 36 34 33 32 31 30 29 28 27 27 26 25 24 24 23 23 23 22 21 21 20 20 20 19 19 19 19 19 18 18 18 17 17 16 16
52 52 53 54 55 56 57 57 55 57 60 59 58 60 63 65 67 68 70 71 71 73 74 75 77 78 78 79 79 78 77 76 74 71 69 67 66 64 62 60 58 55 53 52 49 48 48 45 42 42 42 41 40 39 37 36 35 34 34 33 33 32 32 32 31 31 31 31 31 30 30 30 29 29 29 29 28 28 28 27 27 26 25 24 23 22 21 20
49 50 51 52 53 55 55 55 55 57 57 55 56 58 59 61 63 65 66 67 67 69 70 72 73 74 75 76 76 75 75 74 74 72 71 71 70 69 68 67 65 63 60 58 57 55 54 51 49 48 48 47 45 45 44 43 43 42 42 41 41 41 42 42 41 41 41 40 40 40 39 38 37 36 35 34 34 33 31 30 29 28 26 25 24 23 22 20
46 47 48 49 50 52 53 53 55 56 54 53 54 55 56 58 59 61 62 63 63 65 66 68 69 69 70 71 71 72 71 71 71 70 70 71 70 70 70 69 68 68 66 65 64 63 62 60 59 56 56 55 54 54 53 53 52 51 51 50 50 49 49 49 48 46 45 44 44 43 42 41 39 38 37 35 34 33 31 30 29 27 26 25 23 22 21 20
43 44 45 47 48 49 50 51 53 53 53 53 52 52 53 55 56 57 58 59 60 61 62 63 64 65 65 66 67 67 67 67 67 68 68 68 68 68 68 68 68 68 67 66 66 65 64 64 63 61 60 59 59 58 57 57 56 55 54 53 52 51 50 50 48 47 46 45 44 43 42 40 38 37 36 34 33 31 30 29 27 26 25 24 23 22 21 20
41 42 42 43 45 46 47 49 49 50 51 52 52 51 51 52 53 54 55 55 56 57 58 59 59 60 60 61 62 62 62 63 63 64 65 65 65 65 65 66 66 66 66 65 65 64 63 63 63 61 60 59 58 58 57 56 55 54 54 52 51 51 50 49 48 47 46 45 43 42 41 39 37 36 34 33 31 30 29 28 27 25 24 23 22 21 20 20
39 40 40 40 42 43 44 46 47 48 48 49 50 50 50 50 50 51 52 53 53 54 55 55 56 56 56 57 58 58 58 59 59 60 61 61 61 62 62 63 63 63 63 62 62 62 61 61 61 60 59 58 57 57 56 55 54 53 53 51 50 50 49 48 46 45 45 43 42 41 39 38 36 35 34 32 31 30 29 28 27 26 25 24 23 22 21 21
36 37 38 38 39 40 41 42 44 45 46 46 47 48 48 48 48 49 50 50 51 51 52 52 53 53 54 54 54 55 55 55 56 57 57 57 58 58 58 59 59 59 59 59 58 58 58 58 57 57 56 55 54 54 53 53 52 51 50 49 48 47 46 45 44 43 42 41 40 40 39 38 36 35 34 33 32 30 29 28 27 26 25 25 24 23 23 22
32 34 36 37 37 37 38 39 40 42 43 44 45 45 45 46 46 46 47 47 48 49 49 50 50 51 51 51 51 51 52 52 53 54 55 55 54 55 55 55 55 55 55 54 54 54 53 53 53 52 52 51 51 51 50 50 49 48 47 46 45 44 43 43 42 41 41 40 39 38 37 36 35 33 32 31 30 29 28 27 26 26 25 24 24 24 23 23
28 30 32 34 35 35 35 36 37 38 39 41 42 43 43 43 43 43 43 44 45 46 47 47 47 48 48 49 49 48 48 49 50 50 51 52 51 51 51 50 50 50 50 50 49 49 49 48 48 48 48 48 48 47 47 47 46 45 45 44 43 43 42 41 41 40 39 38 37 35 34 33 32 31 30 29 28 27 27 26 25 25 24 24 23 23 23 23
25 27 30 31 32 32 33 33 34 35 36 37 38 40 41 41 42 41 41 41 41 42 43 44 44 45 45 45 46 46 45 46 46 46 47 47 47 47 47 46 46 46 46 46 45 45 45 44 44 44 44 44 44 44 43 43 42 42 42 41 41 40 39 39 38 37 36 34 33 32 31 30 29 28 27 27 26 25 24 24 23 23 22 22 22 22 22 23
22 24 27 28 29 30 30 31 31 32 33 34 35 36 37 38 40 40 40 39 39 39 39 40 40 41 41 42 42 42 42 42 42 42 42 42 42 42 42 42 42 42 42 42 41 41 41 41 40 40 40 39 39 39 38 38 38 38 37 37 36 36 35 34 33 32 32 31 30 29 29 28 27 26 25 24 23 22 22 21 21 21 21 21 22 23 24 25
21 22 24 26 26 27 27 28 28 29 30 31 32 33 34 34 36 37 38 38 38 37 37 36 36 37 37 38 38 38 38 39 39 38 38 38 38 38 38 38 38 39 38 38 38 38 38 38 37 37 36 35 34 34 33 33 33 32 32 31 31 31 30 29 28 28 27 27 26 26 26 25 25 24 24 23 23 22 22 22 22 22 22 23 24 25 25 26
21 21 22 23 24 24 25 25 26 26 27 28 30 30 31 32 32 33 34 35 36 36 35 35 34 34 34 34 34 34 34 34 35 35 35 35 35 35 35 35 35 35 34 34 34 34 34 34 34 34 33 32 31 30 29 28 27 27 26 26 25 25 25 25 24 24 23 23 23 22 22 22 22 23 23 24 24 24 23 23 23 23 23 24 26 27 28 29
Wind_Direction
267 265 263 261 260 258 257 256 255 254 253 252 251 251 250 249 248 247 246 245 245 244 244 244 244 243 243 243 243 243 243 242 242 241 240 240 239 238 238 237 236 236 236 236 236 236 237 236 237 237 237 238 238 238 239 239 239 240 241 242 242 244 245 245 245 245 246 246 247 247 248 248 249 249 250 250 251 251 251 251 251 251 251 251 251 251 252 252
275 271 267 265 263 261 259 258 257 256 255 254 253 252 252 251 251 250 249 248 247 246 245 244 244 243 243 242 242 242 242 242 242 241 241 241 240 239 239 238 237 236 236 236 236 236 236 236 236 236 237 237 237 238 238 239 239 239 240 240 241 242 244 245 245 245 246 247 247 247 247 248 248 249 249 250 251 251 251 252 252 252 252 252 252 252 252 252
286 281 276 271 267 265 262 260 259 257 256 255 254 253 253 252 251 251 250 250 249 248 247 246 245 245 244 243 243 242 241 241 241 241 240 240 240 240 239 238 238 237 237 236 236 236 236 236 236 236 236 237 237 237 237 238 238 238 239 239 240 241 242 244 244 245 245 246 247 247 247 248 248 249 249 250 250 251 251 252 252 252 252 252 252 252 252 252
297 291 285 280 275 271 268 265 262 261 259 257 256 255 254 253 252 251 251 250 250 249 249 248 247 246 245 244 244 243 243 242 241 241 240 240 240 239 239 238 238 237 237 237 236 236 236 236 236 236 236 236 236 237 237 237 238 238 238 239 239 240 241 242 243 244 244 245 246 247 247 248 248 249 249 250 250 250 251 251 251 252 252 252 252 252 252 252
307 301 295 289 284 279 275 271 268 265 263 261 260 258 257 255 254 253 252 251 250 249 249 248 247 247 246 245 244 243 243 242 242 241 240 240 240 239 239 239 238 237 237 237 236 236 236 236 236 236 236 236 236 236 236 237 237 237 238 238 238 239 240 242 242 242 243 244 244 245 246 247 248 248 249 250 250 250 251 251 252 252 252 252 252 252 252 252
316 309 303 297 292 287 283 279 275 272 270 267 265 262 261 259 258 256 255 254 253 252 251 250 249 248 247 246 245 244 243 242 242 241 240 240 239 239 239 239 238 238 237 236 236 236 236 236 236 236 236 236 236 236 236 236 237 237 237 237 237 238 240 241 241 242 242 242 243 244 245 246 247 247 248 248 249 250 250 251 251 252 252 252 252 252 252 253
327 319 311 304 298 294 291 288 285 282 279 276 273 270 268 265 263 261 259 257 256 255 254 253 252 251 249 248 246 245 244 243 242 241 240 239 239 238 238 238 238 237 237 236 236 236 236 236 235 235 235 235 235 236 236 236 236 236 236 236 237 237 238 240 241 241 241 241 242 242 244 244 245 245 246 247 248 249 250 250 250 251 252 252 253 253 253 253
338 330 321 313 306 301 296 293 289 287 284 281 280 278 276 273 269 266 262 259 257 256 255 254 253 252 251 250 249 247 246 244 243 241 240 239 239 238 237 237 236 236 236 236 236 236 235 235 235 235 235 235 235 235 235 236 236 236 236 236 236 237 238 239 240 241 241 241 241 242 242 243 244 244 245 246 247 248 248 249 249 250 251 252 253 253 254 254
348 341 334 325 318 311 305 300 296 293 291 288 285 281 277 273 269 267 264 261 259 256 255 254 252 252 251 250 249 248 247 246 244 242 241 240 239 238 237 237 236 235 235 235 235 236 235 235 235 235 235 235 235 235 235 235 235 235 235 235 236 236 237 238 239 240 240 241 241 242 242 243 243 244 244 245 245 246 248 248 249 250 251 252 252 253 253 254
358 353 348 342 335 328 321 316 312 309 305 300 292 283 276 271 268 267 265 264 262 259 257 255 253 251 250 249 248 248 247 245 244 243 242 240 239 238 237 237 236 235 234 234 234 234 235 235 235 235 234 234 234 234 234 234 234 234 234 234 235 235 236 237 238 238 239 240 241 241 242 242 243 243 244 244 245 246 247 248 248 249 250 251 251 252 253 253
4 1 357 353 348 344 340 338 336 329 318 304 292 285 281 279 278 277 274 271 268 264 260 257 255 253 251 250 248 247 246 245 244 243 242 240 239 238 237 236 236 235 234 234 233 233 233 234 234 235 234 234 234 234 234 234 234 234 233 233 234 234 235 236 237 238 239 239 240 241 242 242 243 244 244 245 245 246 247 249 249 249 249 250 250 250 251 252
8 5 2 359 356 355 353 353 350 340 325 310 301 298 297 294 291 288 285 281 277 272 267 261 257 254 252 250 249 248 247 245 244 243 242 240 239 238 237 236 235 234 234 233 233 232 232 232 233 233 234 234 234 234 233 233 233 233 233 233 233 233 234 235 236 237 238 239 240 240 241 242 243 243 244 245 246 246 247 248 249 249 249 249 250 250 250 251
12 10 7 4 1 360 0 359 354 344 333 326 326 329 328 321 312 302 291 282 277 274 271 268 263 257 253 250 248 247 246 244 243 242 241 240 239 238 236 236 235 234 233 233 232 232 232 232 232 232 233 233 234 234 233 233 232 232 232 232 233 233 233 234 235 237 238 239 240 240 241 241 242 242 243 244 245 245 246 247 248 248 249 249 249 249 250 251
17 15 12 8 5 4 5 3 358 351 345 346 352 358 358 351 340 326 312 297 282 272 267 266 265 263 260 255 250 246 244 243 242 241 240 239 238 237 236 235 234 233 233 232 232 231 231 231 231 231 231 232 232 233 233 233 232 232 232 232 232 233 233 234 234 236 237 238 239 240 241 241 242 242 242 243 244 245 246 246 247 247 248 249 249 249 249 250
21 19 16 13 10 11 11 9 6 4 2 6 15 17 11 2 351 338 326 317 307 289 273 268 267 264 262 260 258 254 248 243 240 239 239 238 237 236 235 234 233 232 231 231 231 230 230 230 230 230 231 231 231 232 232 233 233 232 232 232 232 233 233 234 234 235 236 237 237 239 240 241 242 242 243 244 245 246 246 247 247 248 248 248 249 250 250 250
25 23 20 17 16 17 18 16 16 21 22 24 29 27 20 12 4 353 339 327 318 305 293 289 285 277 267 261 260 259 256 248 241 237 236 235 234 234 234 233 232 230 229 229 229 229 229 229 229 229 230 230 231 231 231 232 232 232 232 232 232 233 233 234 234 235 235 236 237 238 239 240 241 242 243 244 245 246 247 247 248 249 249 250 250 251 251 252
28 26 24 22 21 22 24 24 27 36 39 37 35 32 26 20 13 6 1 353 338 317 297 290 289 287 281 271 262 258 256 254 248 240 235 232 231 231 230 230 230 230 229 228 227 228 228 228 228 228 229 229 230 230 231 232 232 233 233 232 232 232 233 233 234 234 235 236 237 238 239 239 240 241 243 244 245 246 246 248 249 250 250 251 252 252 252 252
32 30 28 26 25 26 29 32 36 42 47 46 42 35 30 26 20 13 9 5 359 347 327 304 290 286 282 274 267 259 254 253 251 248 241 235 230 229 227 227 227 227 227 227 226 226 226 226 227 227 227 228 229 229 230 231 231 232 233 232 233 233 233 234 234 234 235 236 237 238 239 239 240 242 243 244 244 245 246 247 248 249 250 251 252 253 253 253
35 34 32 31 30 29 31 36 41 45 48 49 47 40 35 32 28 22 15 8 2 358 352 339 324 310 290 269 261 258 256 253 250 247 243 238 231 226 225 223 223 223 224 225 225 224 224 225 225 226 226 226 227 228 229 229 230 230 231 231 231 231 232 233 234 234 235 236 237 237 238 239 240 241 242 243 244 245 246 246 248 249 250 251 252 253 254 254
38 37 36 35 34 33 33 36 41 45 46 46 46 42 38 34 31 28 25 21 15 11 5 357 350 346 336 303 270 258 257 257 254 248 240 235 230 223 220 219 218 218 218 220 222 222 222 223 224 225 225 226 226 227 227 228 228 229 229 230 230 230 230 230 231 233 234 236 237 238 238 239 239 240 241 242 243 244 245 246 247 248 249 250 251 252 253 254
40 40 39 39 39 37 36 37 40 43 44 43 44 42 39 36 33 31 29 27 25 21 19 15 9 3 357 346 320 284 265 257 256 253 239 227 224 219 215 214 213 213 213 215 217 218 220 221 222 223 223 224 224 225 225 226 227 227 228 229 230 230 230 231 231 232 233 234 235 237 238 239 240 240 241 242 242 243 244 245 247 248 249 250 251 252 252 253
42 42 41 42 42 41 40 40 42 45 44 43 42 42 41 39 37 36 33 34 33 28 26 25 22 17 9 1 351 334 311 283 259 251 240 221 213 211 211 209 208 207 207 209 211 213 215 217 218 219 220 221 222 222 223 224 225 225 226 227 228 229 230 231 232 232 233 234 235 236 237 238 239 240 241 242 243 244 245 246 247 248 249 250 251 251 252 252
43 43 42 43 44 44 44 43 45 48 48 46 44 44 42 40 40 39 38 39 40 38 34 33 32 30 26 23 15 3 349 340 329 242 228 216 202 199 202 203 201 200 202 205 207 208 210 213 215 217 218 219 220 221 222 222 223 224 224 225 226 227 228 230 231 232 234 235 235 236 237 237 238 239 240 241 243 244 245 246 248 249 250 250 251 252 252 253
45 44 44 44 44 45 45 45 47 49 50 48 47 47 46 44 42 42 43 43 44 44 42 41 41 40 41 44 41 38 30 21 32 86 182 195 191 189 191 193 192 192 195 199 202 205 206 208 212 214 215 216 217 218 220 221 222 223 224 225 225 225 227 228 229 231 232 234 235 236 237 238 239 240 241 242 243 244 245 246 247 248 249 250 251 252 253 253
46 46 45 45 45 45 45 45 47 49 50 48 46 47 47 46 45 45 47 47 46 46 45 45 46 45 47 52 55 55 53 54 61 73 101 144 164 170 175 178 179 180 183 189 195 199 202 204 207 209 211 212 213 215 216 218 220 221 223 224 225 225 226 227 228 229 231 232 233 235 237 238 240 241 241 242 243 244 245 246 247 247 248 250 251 252 253 254
47 47 46 46 46 46 45 45 46 48 49 47 45 44 44 44 43 43 45 46 47 48 48 50 49 48 50 53 57 57 54 58 65 72 83 99 120 131 147 159 166 170 172 178 184 189 194 198 201 203 205 207 209 211 212 214 217 219 220 221 223 225 226 227 228 229 230 232 233 234 235 237 238 239 241 242 243 244 245 246 247 248 249 250 252 253 255 256
48 47 47 47 47 47 47 45 45 47 48 47 45 44 43 42 41 41 42 43 46 50 51 53 53 52 51 51 54 55 54 60 70 79 86 91 97 101 113 135 148 157 162 167 173 180 185 189 193 196 197 200 203 207 209 211 213 216 218 219 221 223 225 227 228 230 231 232 233 234 236 237 238 240 241 242 243 244 245 246 248 249 251 252 254 255 256 257
49 49 48 48 49 48 48 47 47 48 49 47 46 45 44 43 43 43 43 44 48 52 53 54 54 53 53 51 52 54 54 62 73 83 88 92 95 96 97 106 122 132 144 156 159 166 174 178 181 185 189 193 197 201 204 207 210 213 214 216 219 221 223 225 228 230 232 234 235 236 237 238 239 241 242 244 245 246 247 248 250 252 253 254 255 256 257 258
50 50 49 49 50 50 50 49 48 50 51 49 47 47 46 46 45 46 47 48 52 54 55 56 56 55 54 52 51 50 48 53 65 79 90 98 103 101 96 97 108 111 120 141 144 145 156 164 166 170 177 185 190 195 198 201 205 209 211 213 216 219 221 224 226 229 232 234 236 238 239 239 240 242 243 244 246 247 249 251 252 253 254 255 256 257 258 259
50 51 50 50 51 51 51 51 50 51 53 52 50 49 47 47 47 48 50 52 54 56 56 58 58 58 59 57 54 52 48 49 55 65 80 93 102 103 101 102 104 103 111 128 129 130 138 145 151 156 162 169 175 182 189 194 198 203 206 209 213 215 218 221 224 226 228 230 232 234 236 237 238 240 242 243 245 246 248 249 250 251 252 254 255 256 256 258
51 52 52 51 52 52 52 53 52 52 54 54 52 51 50 49 50 52 54 55 56 57 57 58 59 60 62 63 63 61 58 56 57 58 61 69 84 99 105 107 105 104 113 120 118 122 129 133 138 144 150 154 158 164 174 183 190 195 199 202 206 210 213 217 220 223 226 228 230 232 234 236 238 239 240 242 243 244 246 247 249 250 252 253 254 255 257 259
50 52 53 53 53 53 53 54 53 53 55 56 53 52 52 50 52 54 55 56 55 55 56 57 59 60 62 63 65 66 64 63 63 62 60 61 70 88 103 111 112 110 111 110 112 117 124 130 134 139 145 147 151 156 163 171 176 181 189 194 196 201 205 210 215 219 223 227 229 231 233 235 237 238 240 242 243 245 247 249 250 252 254 256 258 260 261 263
49 51 53 54 54 54 54 54 54 53 55 57 54 53 53 52 53 55 55 56 56 55 55 56 57 59 60 61 62 63 64 65 66 67 67 65 65 71 83 95 105 108 108 108 109 110 116 123 127 132 139 143 146 150 151 156 161 164 172 182 186 192 198 203 208 213 218 222 225 228 231 234 238 241 244 247 250 252 254 256 257 259 260 262 264 265 267 268
46 49 52 53 54 54 54 54 54 54 55 57 55 52 54 55 56 56 56 57 57 57 57 57 58 58 59 60 61 62 63 65 67 68 69 68 67 69 71 74 82 93 100 103 104 106 112 118 120 123 128 130 136 143 143 145 149 150 155 166 174 181 192 200 206 211 217 222 227 231 236 240 245 248 252 254 257 260 261 262 263 264 266 267 269 270 271 272
44 46 49 52 53 54 54 53 53 53 55 58 55 52 55 57 58 58 58 59 59 59 59 59 60 60 60 60 61 62 63 64 66 66 66 69 71 73 75 76 79 84 86 87 91 95 99 106 112 119 124 127 135 141 141 141 145 146 149 157 165 173 183 192 200 211 221 227 231 235 240 243 246 249 251 252 253 255 257 258 260 262 265 266 267 267 267 267
43 44 47 50 52 54 54 53 52 52 54 57 55 53 56 58 58 59 60 60 60 60 60 60 61 62 62 62 63 63 63 63 64 65 65 68 72 74 77 79 82 84 83 83 84 83 79 83 91 98 108 117 123 125 123 124 127 127 126 126 126 126 125 127 138 156 176 191 203 213 219 223 227 228 230 231 232 234 235 237 240 243 245 247 248 250 253 257
41 44 45 47 49 52 54 54 53 52 54 56 55 54 57 57 57 58 59 60 60 61 61 61 62 63 63 63 64 64 64 63 64 65 66 68 71 74 76 78 79 81 82 82 83 83 81 81 85 88 92 95 97 96 96 98 100 100 101 101 101 101 102 105 111 115 119 124 129 133 137 140 146 149 153 156 159 161 161 163 164 166 168 169 170 175 213 329
39 43 44 45 47 49 52 54 53 53 55 55 54 54 56 56 56 57 57 58 59 60 61 61 62 62 63 63 63 64 64 65 66 67 68 69 70 73 74 75 77 78 80 81 83 86 86 85 87 91 92 92 93 93 94 95 97 99 101 101 102 103 103 106 108 110 112 114 115 115 115 116 117 118 119 118 117 116 114 111 106 101 96 90 85 80 75 71
37 40 42 44 46 47 49 52 53 54 55 55 53 54 55 55 56 56 55 56 57 58 59 60 61 61 62 63 63 64 65 66 67 68 69 70 71 72 73 74 76 77 79 81 82 85 87 86 88 90 91 92 93 94 95 97 99 100 101 102 102 102 102 103 103 104 104 104 103 103 102 101 101 101 100 99 98 97 95 94 92 91 89 88 86 84 81 78
36 38 40 43 45 46 48 50 51 54 55 55 54 54 54 55 55 55 55 55 55 56 57 58 59 60 61 62 63 63 64 65 67 68 69 70 71 73 74 75 76 77 79 81 82 82 84 85 85 86 88 89 90 92 93 94 95 95 96 96 96 97 97 96 96 97 97 97 97 96 95 95 96 95 95 95 94 94 93 92 91 89 88 86 84 80 77 73
34 37 38 41 43 45 47 48 50 53 55 55 55 54 54 55 55 56 56 56 55 55 55 55 56 57 59 61 62 63 64 65 66 67 68 70 71 73 74 75 77 78 79 81 82 83 84 85 84 85 86 87 89 90 90 91 91 92 92 93 93 94 95 95 95 96 96 96 96 95 95 95 95 94 93 93 92 91 89 88 86 84 82 80 77 74 71 67
33 36 37 39 41 43 46 47 49 51 53 54 55 55 55 56 56 57 57 57 57 56 55 55 55 56 57 59 60 62 63 64 65 67 68 69 71 73 74 76 77 78 79 80 82 83 84 85 85 86 87 88 89 90 91 91 92 93 93 94 94 95 95 95 95 95 95 95 94 94 93 92 91 90 89 88 87 85 84 82 81 79 77 75 73 70 67 63
32 34 36 37 39 41 44 46 48 50 51 53 54 55 56 56 57 57 58 59 59 58 57 56 56 56 56 57 59 60 61 62 63 65 67 68 70 72 74 75 77 78 79 80 81 82 83 85 86 86 87 88 89 90 91 92 92 93 93 93 93 93 93 93 92 91 91 89 88 88 87 86 85 85 84 83 82 81 81 79 78 77 75 73 70 67 64 60
29 32 35 36 38 40 42 43 47 49 51 52 53 55 57 57 57 58 59 59 60 60 60 59 58 58 57 58 59 60 61 61 62 63 65 66 68 69 71 73 75 76 77 78 79 81 81 83 84 85 85 86 87 88 88 89 89 90 89 89 89 88 88 87 87 86 85 84 84 83 83 83 82 82 81 81 81 80 79 77 76 74 72 69 66 62 58 54
27 30 33 35 36 38 40 42 44 47 49 51 52 54 56 58 58 59 60 60 61 61 62 62 61 61 60 60 60 60 61 61 62 63 64 65 66 68 70 71 72 73 75 76 77 78 78 79 80 81 82 83 84 84 85 86 86 86 86 86 86 85 85 85 85 85 84 84 83 82 82 81 81 80 79 78 77 76 74 73 70 68 64 61 57 54 49 45
24 27 30 33 35 36 38 40 42 45 47 49 51 53 54 56 58 60 61 62 62 63 63 64 64 64 63 62 62 62 62 62 63 64 65 66 66 67 69 70 71 72 72 73 74 74 76 76 77 78 80 81 82 83 83 84 84 84 84 85 85 85 85 85 84 84 83 82 81 80 79 78 77 76 74 73 72 70 68 66 63 60 57 54 50 46 42 37
22 25 27 30 32 35 37 38 40 42 44 47 49 51 53 55 57 59 60 62 63 64 65 66 66 65 65 65 65 64 64 64 64 65 66 67 67 68 69 70 71 71 71 71 71 72 73 74 75 76 78 80 81 82 83 83 83 83 83 83 84 84 83 83 83 82 81 79 77 76 75 74 73 71 70 68 67 65 63 60 58 55 51 47 43 39 34 30
20 23 26 27 29 31 34 37 39 40 42 44 46 48 51 53 55 57 59 61 62 64 65 66 67 67 67 67 67 66 66 66 66 67 67 68 68 69 70 71 71 71 70 70 70 71 72 72 73 75 77 79 81 82 82 82 82 82 82 81 81 81 81 81 80 79 77 75 73 72 71 71 70 69 68 66 64 61 58 55 51 47 43 40 35 31 27 22
16 21 23 25 27 29 31 34 37 38 40 42 44 45 47 50 52 54 57 59 61 62 64 66 67 68 69 69 69 69 68 69 69 69 69 68 68 69 69 71 71 71 71 71 71 71 72 72 73 75 77 79 80 81 80 80 80 80 80 80 80 80 79 79 78 76 74 72 71 70 69 69 68 66 65 62 59 56 51 48 44 40 36 32 28 24 19 15
10 15 18 21 25 27 28 30 33 36 38 39 41 43 45 46 48 50 52 55 58 60 62 64 66 67 69 70 71 71 71 71 70 70 69 68 68 68 69 70 71 71 71 71 71 71 72 72 73 75 77 79 80 80 79 79 79 78 78 78 78 78 77 77 75 73 70 68 67 65 65 65 64 63 59 56 51 47 43 39 35 32 29 25 20 16 12 7
0 7 10 14 20 25 27 28 29 32 35 37 38 40 41 43 45 47 48 50 52 55 58 60 62 64 66 67 68 70 71 71 72 71 70 69 68 69 69 70 71 71 71 71 70 70 70 71 71 72 74 76 77 78 78 77 77 77 76 76 76 75 74 73 72 69 67 65 62 60 57 55 53 51 47 43 40 36 33 30 28 24 20 16 12 8 6 2
350 356 1 7 13 19 25 27 26 28 30 33 35 37 38 40 41 44 46 47 48 50 52 54 57 58 60 62 63 64 66 68 69 70 70 70 70 70 70 71 71 72 71 71 70 69 69 69 69 69 69 70 71 72 73 73 73 73 73 73 72 72 70 68 67 66 64 62 60 57 53 48 43 38 34 31 30 29 26 23 20 18 13 9 5 2 359 357
Height
10544 10543 10541 10540 10539 10538 10537 10536 10535 10534 10534 10533 10533 10533 10533 10534 10535 10536 10537 10538 10539 10540 10543 10545 10547 10550 10553 10556 10560 10563 10565 10569 10572 10576 10579 10583 10587 10591 10596 10600 10605 10610 10613 10617 10621 10623 10627 10631 10635 10639 10643 10647 10651 10656 10661 10665 10670 10675 10681 10686 10690 10692 10693 10699 10707 10713 10716 10719 10724 10728 10730 10732 10735 10739 10742 10746 10749 10752 10755 10758 10761 10764 10766 10768 10771 10774 10776 10780
10539 10537 10536 10534 10533 10531 10530 10528 10527 10526 10526 10525 10525 10525 10525 10525 10526 10527 10528 10529 10530 10531 10533 10535 10537 10539 10542 10545 10549 10552 10555 10558 10562 10566 10569 10573 10577 10582 10586 10591 10595 10600 10604 10608 10612 10615 10618 10623 10627 10631 10635 10639 10644 10648 10653 10657 10662 10668 10674 10678 10682 10684 10685 10690 10698 10705 10709 10713 10717 10720 10723 10725 10728 10732 10735 10739 10742 10745 10748 10751 10754 10757 10759 10761 10764 10767 10770 10774
10534 10532 10530 10528 10526 10524 10522 10521 10519 10518 10517 10516 10516 10516 10516 10517 10517 10517 10518 10519 10520 10521 10523 10525 10527 10529 10532 10535 10538 10541 10544 10547 10551 10555 10559 10563 10568 10572 10576 10581 10586 10590 10595 10599 10603 10606 10610 10614 10619 10623 10627 10632 10636 10640 10645 10649 10654 10661 10665 10670 10675 10676 10677 10682 10690 10697 10702 10706 10709 10711 10715 10718 10722 10725 10729 10732 10735 10738 10741 10745 10747 10749 10751 10754 10757 10760 10763 10767
10529 10527 10524 10522 10520 10517 10515 10514 10512 10511 10509 10508 10507 10507 10507 10507 10507 10508 10509 10510 10510 10511 10513 10515 10517 10519 10521 10524 10527 10530 10533 10536 10541 10545 10549 10554 10558 10562 10566 10571 10576 10580 10585 10590 10594 10598 10601 10605 10610 10615 10619 10624 10628 10632 10637 10642 10647 10653 10657 10664 10668 10669 10670 10674 10682 10689 10694 10698 10701 10704 10707 10711 10715 10719 10722 10725 10728 10731 10734 10738 10740 10741 10744 10747 10751 10753 10755 10759
10524 10522 10519 10517 10514 10511 10509 10507 10505 10503 10502 10501 10500 10499 10499 10499 10499 10499 10500 10500 10501 10502 10503 10504 10506 10508 10511 10513 10516 10519 10522 10525 10530 10535 10539 10543 10548 10552 10556 10560 10565 10570 10575 10580 10584 10588 10592 10597 10601 10606 10611 10616 10619 10624 10630 10635 10640 10645 10650 10657 10660 10662 10664 10667 10673 10680 10685 10689 10693 10696 10699 10703 10708 10712 10715 10718 10720 10723 10727 10731 10733 10735 10737 10741 10744 10746 10747 10752
10521 10518 10515 10512 10508 10505 10503 10500 10499 10497 10496 10494 10493 10492 10492 10492 10491 10492 10492 10492 10492 10493 10494 10495 10496 10498 10500 10502 10505 10508 10511 10514 10519 10524 10528 10532 10536 10541 10545 10549 10554 10559 10565 10570 10574 10578 10583 10588 10592 10598 10602 10607 10611 10616 10622 10627 10632 10638 10644 10649 10652 10655 10658 10660 10666 10671 10676 10681 10685 10688 10691 10696 10701 10705 10707 10709 10712 10716 10721 10723 10725 10727 10730 10733 10736 10738 10741 10746
10518 10514 10511 10508 10504 10501 10498 10496 10494 10492 10490 10488 10487 10486 10486 10485 10485 10485 10485 10485 10485 10485 10486 10487 10488 10489 10490 10492 10495 10498 10501 10504 10509 10513 10516 10520 10525 10529 10534 10538 10543 10549 10554 10560 10565 10569 10573 10578 10583 10589 10593 10598 10603 10609 10614 10620 10625 10631 10636 10642 10646 10648 10650 10653 10658 10663 10668 10672 10677 10681 10684 10688 10694 10697 10698 10702 10707 10710 10713 10716 10718 10720 10722 10726 10729 10732 10735 10739
10515 10511 10508 10504 10500 10497 10494 10491 10489 10487 10485 10483 10482 10481 10480 10478 10477 10476 10476 10476 10476 10476 10477 10478 10478 10479 10481 10482 10485 10488 10490 10493 10498 10502 10505 10509 10513 10517 10522 10526 10532 10538 10543 10549 10554 10559 10563 10569 10574 10579 10584 10589 10595 10601 10607 10612 10618 10623 10629 10635 10639 10641 10644 10647 10651 10655 10660 10664 10669 10674 10678 10681 10686 10689 10692 10698 10702 10702 10705 10708 10711 10713 10716 10720 10723 10725 10727 10730
10513 10509 10505 10501 10497 10493 10490 10487 10485 10482 10480 10479 10477 10476 10473 10470 10469 10468 10467 10467 10467 10467 10467 10468 10468 10469 10470 10472 10474 10476 10479 10482 10487 10490 10494 10498 10502 10506 10511 10515 10520 10526 10533 10539 10544 10549 10554 10559 10564 10570 10575 10581 10587 10593 10599 10604 10610 10617 10623 10627 10631 10634 10637 10641 10644 10648 10653 10657 10662 10667 10671 10674 10679 10683 10687 10693 10695 10696 10699 10701 10705 10708 10711 10714 10716 10718 10720 10721
10511 10506 10501 10497 10493 10489 10486 10483 10481 10479 10477 10474 10472 10469 10466 10464 10462 10461 10460 10460 10459 10459 10459 10459 10459 10460 10460 10462 10463 10465 10467 10472 10475 10478 10482 10487 10491 10495 10500 10504 10509 10516 10522 10528 10534 10539 10544 10550 10555 10560 10565 10571 10578 10584 10590 10596 10603 10609 10614 10619 10623 10627 10630 10633 10636 10640 10645 10650 10654 10659 10664 10668 10672 10677 10682 10686 10689 10691 10692 10694 10700 10703 10705 10708 10710 10712 10713 10714
10508 10503 10498 10493 10489 10486 10483 10480 10478 10475 10472 10469 10466 10463 10461 10459 10458 10457 10455 10454 10454 10453 10452 10452 10452 10452 10452 10453 10454 10455 10458 10462 10465 10468 10471 10476 10480 10484 10488 10493 10499 10505 10511 10517 10523 10528 10534 10539 10544 10550 10555 10562 10569 10575 10581 10587 10594 10600 10606 10612 10615 10619 10622 10626 10630 10634 10639 10643 10648 10653 10657 10662 10667 10672 10676 10680 10683 10686 10687 10689 10694 10697 10698 10701 10704 10705 10706 10707
10506 10501 10496 10491 10487 10483 10480 10477 10474 10471 10467 10464 10462 10460 10458 10456 10454 10452 10450 10449 10448 10447 10446 10445 10445 10445 10445 10446 10447 10448 10450 10453 10455 10458 10461 10465 10469 10473 10478 10482 10488 10495 10501 10506 10512 10518 10523 10529 10535 10540 10547 10554 10560 10567 10572 10579 10586 10591 10597 10602 10606 10612 10616 10620 10624 10628 10633 10638 10642 10647 10651 10657 10663 10667 10671 10674 10677 10680 10682 10683 10687 10690 10691 10694 10697 10699 10699 10699
10506 10500 10495 10490 10485 10481 10477 10474 10470 10467 10463 10461 10459 10457 10455 10452 10450 10448 10446 10445 10443 10442 10441 10440 10439 10439 10439 10440 10440 10441 10442 10444 10447 10449 10452 10455 10459 10463 10467 10472 10478 10484 10490 10496 10502 10508 10513 10519 10526 10531 10538 10545 10551 10557 10563 10570 10576 10582 10588 10593 10599 10605 10609 10613 10618 10623 10628 10632 10636 10640 10646 10652 10658 10662 10665 10667 10670 10673 10675 10678 10680 10682 10684 10687 10690 10692 10692 10693
10506 10500 10495 10489 10484 10480 10476 10472 10468 10464 10461 10459 10457 10455 10452 10450 10447 10445 10443 10441 10440 10438 10437 10436 10435 10434 10434 10434 10434 10435 10435 10437 10439 10440 10443 10446 10449 10453 10458 10463 10469 10474 10480 10486 10492 10498 10504 10511 10517 10522 10528 10535 10540 10546 10553 10560 10566 10574 10580 10585 10592 10598 10603 10609 10614 10619 10623 10626 10630 10635 10640 10646 10651 10656 10658 10661 10664 10666 10669 10671 10673 10675 10677 10681 10682 10684 10686 10686
10507 10501 10495 10489 10484 10480 10476 10471 10468 10464 10461 10458 10456 10454 10451 10449 10446 10443 10441 10438 10437 10435 10434 10433 10432 10431 10430 10429 10429 10429 10430 10431 10432 10434 10436 10438 10441 10445 10449 10454 10459 10465 10471 10476 10482 10489 10495 10502 10508 10513 10519 10525 10530 10536 10544 10551 10558 10566 10573 10579 10587 10593 10599 10605 10609 10613 10617 10620 10625 10630 10635 10641 10645 10650 10652 10655 10657 10659 10662 10664 10667 10668 10671 10675 10675 10676 10678 10679
10508 10501 10496 10490 10485 10480 10476 10472 10468 10465 10461 10458 10456 10454 10451 10449 10446 10443 10440 10437 10435 10433 10431 10430 10429 10427 10426 10426 10425 10424 10425 10426 10427 10428 10429 10431 10434 10437 10441 10446 10451 10456 10462 10467 10473 10480 10486 10493 10499 10504 10510 10515 10522 10529 10536 10542 10549 10558 10565 10575 10583 10588 10594 10600 10603 10607 10611 10615 10620 10624 10630 10635 10640 10644 10646 10649 10651 10653 10656 10658 10660 10662 10665 10669 10669 10670 10672 10673
10510 10504 10498 10492 10486 10482 10477 10473 10470 10466 10463 10459 10456 10454 10451 10448 10445 10442 10439 10436 10433 10431 10429 10427 10425 10424 10422 10422 10421 10421 10421 10421 10422 10423 10424 10426 10429 10431 10435 10439 10444 10449 10454 10460 10466 10472 10478 10484 10490 10496 10502 10507 10514 10522 10528 10534 10543 10552 10561 10571 10578 10582 10588 10593 10597 10601 10605 10609 10615 10619 10624 10629 10634 10637 10640 10642 10644 10647 10650 10651 10654 10657 10660 10662 10662 10664 10666 10667
10513 10507 10501 10494 10489 10484 10480 10476 10471 10468 10464 10461 10458 10455 10451 10448 10444 10441 10437 10434 10432 10429 10427 10424 10423 10421 10419 10418 10417 10417 10417 10417 10417 10418 10419 10422 10424 10427 10430 10434 10438 10443 10448 10453 10459 10465 10470 10475 10481 10487 10493 10500 10507 10515 10522 10531 10541 10548 10557 10567 10572 10577 10584 10589 10592 10596 10599 10603 10608 10613 10618 10623 10628 10631 10634 10636 10638 10641 10644 10645 10648 10651 10653 10655 10655 10656 10658 10660
10517 10511 10504 10498 10492 10486 10482 10478 10474 10470 10466 10462 10459 10456 10453 10449 10445 10441 10438 10434 10431 10428 10425 10422 10420 10418 10416 10415 10414 10414 10413 10413 10413 10414 10415 10417 10420 10423 10426 10429 10433 10437 10442 10447 10452 10458 10464 10469 10474 10480 10486 10494 10502 10510 10518 10527 10534 10541 10550 10557 10562 10570 10577 10582 10586 10590 10593 10596 10601 10606 10611 10616 10620 10624 10627 10629 10632 10634 10637 10639 10641 10644 10646 10648 10649 10649 10650 10652
10522 10515 10509 10502 10496 10490 10485 10481 10476 10472 10468 10464 10460 10457 10453 10450 10446 10442 10438 10435 10431 10428 10424 10421 10418 10416 10414 10413 10412 10411 10411 10410 10410 10411 10412 10413 10415 10418 10422 10425 10429 10433 10437 10441 10447 10452 10458 10464 10469 10475 10483 10490 10498 10506 10514 10520 10526 10535 10543 10548 10553 10561 10567 10572 10577 10582 10586 10589 10595 10599 10604 10609 10612 10616 10619 10621 10625 10628 10630 10633 10635 10637 10640 10641 10641 10642 10643 10644
10527 10520 10513 10507 10500 10494 10488 10484 10479 10473 10469 10466 10462 10459 10455 10451 10446 10442 10438 10435 10431 10427 10424 10420 10417 10414 10413 10411 10410 10409 10409 10408 10408 10408 10409 10410 10412 10415 10418 10421 10425 10429 10433 10437 10442 10448 10453 10459 10465 10471 10478 10485 10492 10499 10506 10513 10522 10531 10536 10540 10548 10556 10561 10566 10571 10575 10578 10582 10588 10593 10597 10601 10604 10609 10612 10615 10618 10621 10624 10626 10628 10630 10632 10633 10634 10635 10636 10637
10532 10525 10518 10511 10504 10498 10493 10488 10482 10476 10472 10468 10464 10460 10456 10451 10447 10443 10439 10435 10431 10427 10423 10420 10417 10414 10412 10410 10408 10407 10406 10406 10405 10405 10405 10407 10409 10411 10415 10418 10422 10426 10431 10435 10439 10444 10449 10454 10460 10466 10472 10478 10486 10493 10500 10508 10517 10523 10528 10534 10542 10550 10555 10560 10565 10569 10571 10576 10581 10586 10589 10592 10596 10602 10605 10609 10612 10615 10617 10620 10621 10623 10625 10626 10626 10627 10629 10631
10536 10530 10523 10516 10509 10503 10497 10492 10486 10479 10474 10470 10466 10462 10457 10452 10448 10444 10441 10436 10432 10428 10425 10421 10418 10415 10412 10410 10407 10406 10404 10403 10403 10403 10403 10405 10407 10409 10412 10415 10419 10424 10429 10433 10437 10441 10446 10451 10456 10461 10468 10475 10483 10490 10497 10504 10510 10515 10521 10528 10536 10543 10549 10554 10559 10563 10566 10571 10576 10578 10581 10584 10590 10595 10599 10603 10606 10608 10611 10613 10615 10616 10618 10619 10619 10620 10623 10625
10541 10534 10528 10521 10514 10507 10502 10497 10490 10483 10477 10473 10469 10464 10460 10455 10451 10447 10442 10437 10433 10429 10427 10424 10419 10416 10413 10410 10408 10406 10404 10403 10402 10402 10402 10404 10406 10408 10411 10414 10418 10422 10427 10431 10436 10440 10445 10449 10454 10459 10466 10474 10481 10487 10495 10501 10506 10511 10517 10524 10531 10538 10543 10547 10552 10556 10560 10565 10568 10571 10575 10580 10586 10591 10595 10597 10599 10601 10604 10606 10608 10610 10611 10612 10613 10615 10616 10618
10546 10539 10533 10526 10519 10512 10507 10501 10495 10486 10478 10475 10472 10466 10462 10458 10455 10451 10444 10438 10434 10431 10429 10425 10420 10418 10415 10412 10410 10407 10406 10404 10402 10403 10403 10404 10406 10408 10411 10414 10417 10421 10425 10430 10434 10439 10444 10448 10453 10459 10465 10472 10478 10485 10491 10496 10501 10507 10514 10521 10527 10532 10536 10541 10546 10550 10554 10557 10562 10566 10571 10577 10582 10586 10589 10591 10593 10596 10598 10600 10602 10603 10605 10606 10607 10609 10611 10613
10551 10544 10538 10531 10524 10517 10510 10505 10499 10489 10480 10476 10472 10466 10462 10458 10454 10449 10441 10438 10437 10435 10433 10428 10424 10422 10419 10416 10412 10409 10408 10406 10405 10405 10405 10406 10408 10410 10412 10414 10418 10421 10425 10429 10433 10438 10443 10448 10453 10458 10464 10470 10476 10481 10487 10492 10497 10504 10510 10516 10522 10527 10533 10538 10542 10546 10549 10552 10558 10563 10568 10573 10576 10579 10582 10585 10588 10591 10593 10594 10596 10598 10600 10601 10603 10605 10608 10610
10556 10550 10543 10536 10529 10522 10515 10510 10503 10491 10483 10478 10473 10468 10462 10457 10452 10446 10442 10444 10445 10441 10438 10433 10429 10426 10423 10420 10414 10411 10412 10410 10409 10409 10408 10409 10410 10412 10414 10417 10420 10423 10426 10429 10434 10438 10442 10447 10453 10458 10464 10469 10474 10479 10484 10490 10496 10502 10508 10514 10520 10524 10530 10535 10539 10542 10545 10550 10555 10561 10565 10569 10572 10575 10578 10580 10583 10586 10587 10589 10591 10594 10596 10598 10600 10602 10604 10604
10561 10555 10549 10542 10535 10528 10522 10516 10508 10498 10488 10482 10477 10472 10468 10463 10458 10455 10455 10458 10454 10448 10444 10438 10434 10431 10428 10423 10419 10419 10419 10416 10415 10413 10411 10412 10413 10414 10417 10420 10423 10426 10430 10433 10435 10440 10444 10449 10454 10459 10465 10469 10473 10478 10483 10490 10495 10501 10507 10513 10518 10522 10527 10532 10537 10541 10545 10550 10556 10560 10563 10567 10570 10573 10574 10577 10579 10581 10583 10585 10589 10592 10594 10595 10596 10597 10598 10598
10567 10560 10554 10548 10541 10535 10529 10522 10517 10507 10494 10488 10484 10480 10476 10472 10469 10470 10472 10469 10460 10454 10449 10443 10440 10438 10432 10428 10427 10427 10425 10422 10421 10419 10416 10417 10416 10416 10419 10424 10426 10428 10433 10437 10438 10442 10447 10451 10456 10460 10466 10470 10474 10479 10483 10489 10495 10501 10506 10511 10516 10521 10526 10532 10536 10541 10545 10550 10555 10558 10560 10564 10567 10569 10570 10573 10575 10577 10580 10583 10586 10587 10588 10589 10591 10592 10593 10593
10573 10566 10561 10555 10548 10543 10535 10528 10525 10517 10502 10495 10494 10488 10485 10482 10483 10485 10481 10473 10465 10459 10454 10449 10447 10443 10437 10435 10435 10433 10432 10432 10430 10427 10424 10423 10421 10419 10422 10427 10429 10431 10437 10441 10441 10444 10449 10454 10458 10462 10467 10472 10476 10481 10486 10491 10496 10500 10506 10511 10516 10521 10526 10531 10535 10539 10542 10546 10549 10552 10555 10558 10561 10563 10566 10568 10571 10574 10576 10578 10579 10580 10582 10584 10585 10585 10586 10586
10579 10573 10567 10561 10555 10549 10543 10536 10533 10527 10511 10502 10503 10498 10495 10497 10498 10494 10485 10477 10471 10464 10459 10456 10452 10448 10444 10444 10443 10441 10441 10441 10436 10433 10432 10431 10428 10426 10428 10429 10431 10435 10441 10443 10445 10448 10452 10456 10460 10464 10469 10473 10478 10482 10487 10492 10496 10502 10507 10511 10516 10521 10525 10529 10532 10535 10538 10541 10544 10548 10551 10554 10557 10559 10562 10564 10567 10569 10570 10572 10573 10575 10576 10578 10579 10580 10581 10582
10585 10579 10573 10568 10562 10556 10551 10544 10539 10537 10521 10509 10511 10508 10507 10513 10509 10497 10488 10481 10474 10468 10466 10463 10458 10456 10454 10452 10451 10447 10447 10445 10441 10439 10440 10438 10436 10436 10436 10435 10434 10438 10444 10446 10449 10453 10456 10459 10462 10466 10470 10474 10478 10483 10487 10492 10497 10502 10507 10511 10514 10518 10522 10526 10529 10533 10536 10539 10543 10546 10549 10551 10553 10556 10558 10560 10562 10565 10567 10569 10570 10571 10573 10574 10576 10577 10578 10579
10591 10585 10579 10574 10569 10563 10558 10552 10547 10545 10531 10516 10517 10518 10522 10527 10514 10500 10494 10486 10479 10477 10474 10471 10468 10466 10462 10459 10457 10454 10453 10451 10448 10447 10446 10444 10445 10447 10447 10444 10442 10443 10447 10451 10454 10458 10461 10463 10466 10469 10473 10475 10479 10483 10488 10493 10498 10502 10506 10511 10514 10518 10522 10525 10529 10532 10535 10538 10541 10544 10546 10548 10551 10553 10556 10559 10561 10563 10565 10567 10568 10569 10571 10572 10573 10574 10575 10576
10596 10591 10585 10580 10576 10569 10564 10560 10554 10553 10542 10523 10522 10532 10539 10535 10518 10507 10503 10494 10489 10487 10483 10480 10477 10473 10470 10468 10465 10462 10461 10459 10455 10453 10451 10450 10453 10455 10453 10453 10452 10452 10454 10457 10460 10464 10468 10469 10470 10475 10478 10481 10484 10487 10490 10494 10499 10503 10508 10512 10516 10520 10523 10526 10529 10532 10535 10537 10540 10543 10546 10548 10551 10553 10556 10558 10560 10562 10563 10565 10566 10567 10568 10569 10570 10571 10572 10572
10601 10596 10591 10585 10582 10575 10570 10568 10561 10561 10552 10529 10529 10548 10551 10539 10526 10519 10513 10505 10501 10497 10493 10490 10485 10481 10479 10476 10473 10470 10469 10467 10462 10459 10458 10459 10462 10461 10460 10461 10461 10461 10461 10464 10467 10470 10475 10477 10477 10479 10482 10485 10489 10491 10494 10497 10502 10506 10509 10513 10517 10520 10524 10527 10531 10534 10537 10539 10542 10544 10546 10548 10550 10552 10554 10556 10558 10559 10561 10562 10563 10564 10566 10566 10567 10568 10568 10568
10606 10602 10597 10592 10589 10582 10577 10574 10568 10569 10558 10535 10542 10562 10556 10542 10536 10530 10523 10517 10513 10508 10504 10501 10495 10491 10488 10485 10482 10479 10476 10473 10468 10466 10469 10471 10471 10469 10469 10469 10468 10467 10468 10471 10474 10475 10481 10485 10484 10485 10488 10490 10494 10497 10499 10502 10506 10509 10513 10517 10521 10524 10527 10530 10533 10536 10538 10541 10542 10544 10546 10548 10549 10551 10553 10554 10556 10557 10558 10559 10561 10562 10563 10563 10564 10564 10565 10565
10612 10607 10603 10599 10595 10588 10584 10580 10575 10575 10562 10545 10558 10570 10558 10549 10545 10538 10532 10527 10522 10518 10515 10512 10507 10502 10497 10494 10490 10485 10482 10479 10476 10477 10480 10482 10481 10478 10477 10476 10475 10475 10475 10478 10480 10481 10486 10492 10491 10492 10495 10497 10500 10503 10505 10508 10511 10514 10518 10521 10524 10527 10529 10532 10535 10537 10539 10541 10542 10544 10546 10547 10549 10550 10551 10553 10554 10555 10557 10558 10559 10560 10560 10561 10562 10562 10562 10563
10618 10613 10609 10605 10600 10595 10591 10585 10582 10580 10567 10559 10570 10572 10562 10557 10551 10544 10541 10535 10531 10529 10525 10522 10517 10510 10506 10503 10499 10493 10491 10490 10488 10489 10491 10491 10490 10486 10484 10484 10483 10483 10483 10485 10488 10488 10491 10497 10499 10499 10501 10503 10505 10507 10510 10513 10516 10518 10521 10524 10527 10529 10532 10534 10536 10538 10540 10542 10543 10544 10546 10547 10549 10550 10551 10553 10554 10555 10556 10557 10558 10558 10559 10560 10561 10561 10562 10562
10623 10618 10614 10610 10606 10602 10597 10590 10589 10585 10574 10571 10577 10574 10567 10563 10557 10552 10548 10543 10541 10539 10535 10531 10525 10520 10517 10512 10508 10505 10504 10502 10500 10501 10501 10499 10497 10493 10492 10493 10492 10492 10493 10494 10497 10497 10497 10502 10506 10505 10506 10508 10510 10512 10514 10517 10520 10522 10525 10527 10529 10532 10534 10536 10538 10540 10542 10543 10544 10545 10547 10548 10549 10550 10552 10553 10554 10555 10556 10557 10558 10559 10560 10561 10561 10562 10562 10563
10627 10623 10619 10615 10611 10607 10602 10598 10596 10589 10581 10581 10583 10578 10573 10569 10563 10560 10555 10552 10550 10547 10543 10539 10534 10530 10527 10522 10519 10518 10517 10514 10512 10513 10512 10508 10506 10503 10501 10501 10501 10501 10502 10502 10504 10505 10504 10508 10512 10512 10512 10514 10516 10518 10520 10522 10525 10527 10529 10531 10533 10535 10537 10539 10540 10542 10543 10545 10546 10547 10548 10550 10551 10552 10553 10554 10555 10556 10557 10559 10560 10561 10562 10562 10563 10563 10563 10563
10631 10627 10624 10620 10616 10612 10608 10606 10601 10593 10589 10589 10587 10582 10579 10575 10570 10567 10563 10560 10558 10554 10550 10546 10543 10540 10536 10533 10531 10529 10528 10526 10525 10525 10522 10518 10517 10514 10512 10512 10511 10511 10511 10512 10511 10512 10513 10514 10517 10518 10518 10520 10522 10523 10525 10527 10529 10531 10533 10535 10537 10538 10540 10541 10543 10545 10546 10548 10549 10550 10551 10553 10554 10555 10556 10557 10558 10559 10560 10561 10562 10563 10563 10564 10564 10564 10564 10564
10635 10632 10628 10625 10621 10617 10613 10610 10605 10600 10598 10595 10591 10588 10585 10581 10577 10574 10571 10568 10565 10562 10558 10554 10552 10548 10546 10544 10541 10539 10539 10538 10536 10535 10533 10530 10528 10526 10524 10523 10522 10521 10521 10521 10520 10521 10522 10522 10524 10526 10526 10526 10528 10529 10531 10532 10534 10536 10538 10539 10541 10543 10544 10546 10548 10549 10551 10552 10553 10553 10555 10556 10558 10559 10560 10561 10561 10562 10563 10564 10564 10565 10565 10565 10565 10565 10565 10565
10639 10636 10632 10629 10626 10622 10618 10615 10610 10607 10604 10600 10597 10594 10590 10587 10584 10581 10577 10575 10572 10569 10566 10563 10560 10557 10555 10553 10550 10549 10548 10547 10546 10545 10542 10541 10539 10537 10535 10534 10533 10532 10532 10532 10531 10531 10532 10531 10532 10534 10535 10535 10536 10537 10538 10540 10541 10543 10544 10546 10547 10549 10550 10551 10553 10554 10555 10556 10557 10557 10559 10560 10561 10562 10563 10564 10565 10565 10566 10566 10566 10567 10567 10566 10566 10566 10566 10565
10642 10639 10635 10633 10630 10627 10623 10620 10616 10612 10609 10606 10603 10600 10596 10593 10590 10587 10584 10581 10578 10576 10573 10571 10568 10566 10564 10562 10559 10558 10557 10555 10555 10553 10551 10550 10549 10547 10545 10544 10543 10542 10542 10542 10541 10542 10543 10542 10541 10543 10544 10544 10545 10545 10546 10548 10549 10550 10551 10552 10553 10555 10556 10556 10558 10559 10559 10560 10561 10562 10563 10564 10565 10566 10567 10567 10567 10568 10568 10568 10568 10568 10568 10568 10567 10567 10567 10566
10645 10642 10639 10636 10633 10630 10627 10625 10621 10618 10614 10611 10608 10605 10602 10599 10596 10593 10590 10587 10585 10582 10579 10578 10576 10574 10572 10570 10568 10566 10565 10564 10562 10560 10559 10558 10557 10556 10554 10553 10552 10551 10551 10551 10551 10551 10551 10550 10550 10551 10551 10552 10553 10553 10554 10555 10555 10556 10557 10558 10559 10560 10561 10561 10562 10563 10564 10565 10566 10566 10567 10568 10569 10569 10569 10570 10570 10570 10570 10570 10570 10570 10569 10569 10568 10568 10567 10566
10646 10644 10642 10639 10636 10633 10631 10628 10626 10623 10619 10616 10613 10610 10607 10604 10602 10599 10596 10594 10591 10588 10586 10584 10582 10580 10579 10577 10575 10574 10573 10571 10569 10568 10566 10565 10565 10563 10562 10561 10560 10560 10560 10559 10559 10559 10558 10558 10558 10558 10558 10559 10560 10560 10560 10561 10562 10562 10563 10564 10564 10565 10566 10566 10567 10568 10568 10569 10570 10570 10571 10571 10572 10572 10572 10572 10572 10572 10572 10571 10571 10570 10570 10569 10568 10568 10566 10565
10648 10646 10644 10641 10639 10636 10634 10631 10629 10627 10624 10621 10618 10615 10612 10610 10607 10604 10602 10599 10597 10595 10592 10590 10588 10586 10585 10583 10582 10581 10579 10578 10576 10575 10573 10572 10572 10571 10569 10569 10568 10568 10567 10567 10566 10566 10566 10566 10565 10565 10566 10566 10566 10566 10567 10567 10568 10568 10569 10569 10569 10570 10570 10571 10571 10572 10572 10573 10573 10574 10574 10574 10574 10574 10574 10574 10574 10573 10573 10573 10572 10571 10570 10569 10568 10567 10566 10565
10649 10647 10645 10643 10641 10639 10637 10634 10632 10630 10628 10625 10623 10620 10618 10615 10612 10610 10607 10605 10603 10600 10598 10596 10594 10592 10591 10589 10587 10586 10585 10584 10583 10581 10580 10579 10579 10577 10577 10576 10575 10575 10574 10574 10573 10573 10572 10573 10572 10572 10572 10572 10572 10573 10573 10573 10573 10573 10574 10574 10574 10574 10574 10575 10575 10576 10576 10576 10576 10577 10576 10577 10577 10576 10576 10576 10575 10575 10574 10573 10572 10571 10570 10569 10568 10567 10565 10564
10649 10648 10646 10644 10643 10641 10639 10637 10635 10632 10630 10628 10626 10624 10622 10620 10617 10615 10612 10610 10608 10606 10603 10601 10600 10598 10596 10595 10593 10592 10591 10590 10588 10587 10586 10585 10585 10584 10583 10583 10582 10581 10580 10580 10580 10579 10579 10579 10578 10578 10578 10578 10578 10578 10578 10578 10578 10578 10578 10578 10578 10578 10578 10579 10579 10579 10579 10579 10579 10579 10579 10578 10578 10578 10577 10577 10576 10576 10575 10574 10573 10572 10571 10569 10568 10566 10565 10563
10649 10648 10647 10646 10644 10642 10641 10639 10637 10635 10633 10631 10629 10627 10625 10623 10621 10619 10617 10615 10613 10611 10608 10606 10605 10603 10602 10600 10599 10598 10596 10595 10594 10593 10592 10591 10590 10589 10589 10588 10588 10587 10586 10586 10586 10585 10584 10584 10584 10584 10583 10584 10583 10583 10583 10583 10583 10583 10583 10582 10582 10582 10582 10582 10582 10582 10581 10581 10581 10581 10580 10580 10580 10580 10579 10578 10577 10577 10576 10574 10573 10572 10570 10569 10567 10565 10563 10561
10649 10648 10647 10646 10645 10644 10642 10640 10639 10637 10635 10633 10631 10630 10628 10626 10624 10623 10621 10619 10617 10615 10613 10611 10610 10608 10607 10605 10604 10603 10601 10600 10599 10598 10597 10596 10595 10594 10594 10593 10592 10591 10591 10591 10591 10590 10589 10589 10589 10588 10588 10588 10588 10587 10587 10587 10587 10586 10586 10586 10585 10585 10585 10585 10584 10584 10584 10583 10583 10582 10582 10581 10581 10580 10580 10579 10578 10576 10575 10574 10572 10570 10569 10567 10565 10563 10561 10559
10649 10648 10647 10646 10645 10644 10643 10642 10640 10639 10637 10635 10633 10632 10630 10628 10627 10625 10624 10622 10620 10619 10617 10616 10614 10613 10611 10610 10608 10607 10606 10604 10603 10602 10602 10601 10600 10599 10598 10597 10596 10596 10595 10595 10595 10594 10594 10593 10593 10593 10592 10592 10592 10591 10591 10591 10590 10590 10589 10589 10588 10588 10587 10587 10587 10586 10586 10585 10585 10584 10583 10582 10581 10580 10579 10578 10577 10576 10574 10573 10571 10569 10568 10566 10564 10561 10559 10557